"startDT [UTC]","vpos","CH4 [ppm]","stdev(CH4) [ppm]","CO2 [ppm]","stdev(CO2) [ppm]","H2O_reported [%]","stdev(H2O_reported)","CavityPressure [torr]","CavityTemp [C]","OutletValve","CH4_dry [ppm]","CO2_dry [ppm]","DasTemp [C]","EtalonTemp [C]","WarmBoxTemp [C]","MPVPosition","T_ECpre [C]","T_EC1 [C]","T_EC2 [C]","p_inlet [hPa]","p_in [hPa]","p_out [hPa]","T_inlet [C]","RH_inlet [%]","dwpt_inlet [C]","T_vent [C]","RH_vent [%]","dwpt_vent [C]","flow_vent [l min-1]","flow_inlet [l min-1]","dwpt_sample [C]","T_room [C]"
2014-08-22 00:00:00,0.0,1.89662,0.00046,380.850,0.139,0.7814,0.0052,140.002,45.000,32052.99932,1.91158,384.516,34.846,45.064,45.000,0.00,0.11,-272.66,-272.73,-1,564,-6,23.7,21.0,0.1,23.5,21.3,0.1,5.73,1.97,3.2,26.6
2014-08-22 00:01:00,0.0,1.89689,0.00043,380.896,0.152,0.7926,0.0021,140.000,45.000,32053.39981,1.91204,384.623,34.840,45.064,45.000,0.00,0.11,-272.67,-272.73,-1,564,-6,23.8,21.3,0.3,23.5,21.7,0.3,5.73,1.94,3.2,26.9
2014-08-22 00:02:00,0.0,1.89740,0.00035,380.777,0.166,0.7910,0.0023,140.002,45.000,32053.41431,1.91254,384.488,34.820,45.064,45.000,0.00,0.11,-272.66,-272.72,-1,564,-6,23.7,21.2,0.2,23.5,21.7,0.4,5.73,1.89,3.2,26.8
2014-08-22 00:03:00,0.0,1.89658,0.00058,381.198,0.296,0.7911,0.0020,140.002,45.000,32055.51099,1.91173,384.908,34.815,45.064,45.000,0.00,0.11,-272.66,-272.73,-1,564,-6,23.7,21.2,0.2,23.5,21.7,0.3,5.73,1.84,3.2,26.9
2014-08-22 00:04:00,0.0,1.89748,0.00065,381.155,0.177,0.7817,0.0048,140.000,45.000,32053.38875,1.91243,384.833,34.814,45.064,45.000,0.00,0.11,-272.67,-272.73,-1,564,-6,23.7,20.9,0.1,23.5,21.5,0.3,5.73,1.83,3.2,26.8
2014-08-22 00:05:00,0.0,1.89745,0.00041,381.152,0.125,0.7827,0.0038,139.998,45.000,32053.30733,1.91244,384.828,34.817,45.064,45.000,0.00,0.11,-272.66,-272.73,-1,564,-6,23.7,21.0,0.1,23.5,21.4,0.2,5.73,1.84,3.2,26.6
2014-08-22 00:06:00,0.0,1.89754,0.00046,381.157,0.127,0.7856,0.0019,139.999,45.000,32052.99644,1.91255,384.853,34.813,45.064,45.000,0.00,0.11,-272.66,-272.73,-1,564,-6,23.7,21.1,0.1,23.5,21.6,0.3,5.73,1.88,3.2,26.8
2014-08-22 00:07:00,0.0,1.89717,0.00048,381.219,0.134,0.7853,0.0023,139.997,45.000,32054.05009,1.91225,384.901,34.814,45.064,45.000,0.00,0.11,-272.67,-272.73,-1,564,-6,23.7,21.1,0.2,23.5,21.5,0.2,5.73,1.93,3.2,26.6
2014-08-22 00:08:00,0.0,1.89787,0.00071,381.011,0.247,0.7859,0.0017,139.999,45.000,32053.20597,1.91290,384.705,34.813,45.064,45.000,0.00,0.11,-272.67,-272.73,-1,564,-6,23.7,21.1,0.1,23.5,21.6,0.3,5.73,1.97,3.2,26.8
2014-08-22 00:09:00,0.0,1.89735,0.00053,381.290,0.133,0.7888,0.0023,140.000,45.000,32054.12511,1.91241,385.000,34.811,45.064,45.000,0.00,0.11,-272.67,-272.72,-1,564,-6,23.7,21.1,0.2,23.5,21.6,0.3,5.73,1.99,3.2,26.7
2014-08-22 00:10:00,0.0,1.89978,0.00069,380.958,0.195,0.7848,0.0024,139.999,45.000,32052.87324,1.91480,384.648,34.812,45.064,45.000,0.00,0.11,-272.67,-272.73,-1,564,-6,23.7,21.1,0.1,23.5,21.6,0.3,5.73,1.97,3.2,26.5
2014-08-22 00:11:00,0.0,1.89825,0.00063,380.820,0.250,0.7937,0.0028,140.001,45.000,32054.54512,1.91349,384.551,34.813,45.064,45.000,0.00,0.11,-272.67,-272.73,-0,564,-6,23.7,21.3,0.3,23.5,21.7,0.4,5.73,1.92,3.2,26.7
2014-08-22 00:12:00,0.0,1.89816,0.00059,380.827,0.183,0.7962,0.0018,140.000,45.000,32054.20704,1.91337,384.562,34.828,45.064,45.000,0.00,0.11,-272.66,-272.73,-0,564,-6,23.7,21.4,0.3,23.5,21.8,0.4,5.73,1.88,3.2,26.8
2014-08-22 00:13:00,0.0,1.89965,0.00053,380.973,0.177,0.7973,0.0020,140.000,45.000,32055.96911,1.91488,384.712,34.824,45.064,45.000,0.00,0.11,-272.66,-272.72,-0,564,-6,23.7,21.4,0.4,23.5,21.9,0.5,5.73,1.84,3.2,26.6
2014-08-22 00:14:00,0.0,1.90026,0.00063,381.022,0.287,0.7982,0.0022,139.999,45.000,32054.97703,1.91558,384.783,34.826,45.064,45.000,0.00,0.11,-272.67,-272.73,-0,564,-6,23.8,21.4,0.4,23.5,21.9,0.5,5.73,1.83,3.2,26.7
2014-08-22 00:15:00,0.0,1.89926,0.00049,380.791,0.311,0.8010,0.0033,140.000,45.000,32054.39067,1.91463,384.544,34.816,45.064,45.000,0.00,0.11,-272.67,-272.73,-0,564,-6,23.7,21.5,0.4,23.5,21.9,0.5,5.73,1.85,3.2,26.8
2014-08-22 00:16:00,0.0,1.89971,0.00051,381.183,0.268,0.8029,0.0034,140.000,45.000,32055.70001,1.91509,384.950,34.813,45.064,45.000,0.00,0.11,-272.66,-272.73,-0,564,-6,23.8,21.5,0.5,23.5,22.1,0.6,5.73,1.89,3.2,26.8
2014-08-22 00:17:00,0.0,1.89895,0.00060,381.825,0.167,0.7971,0.0022,140.001,45.000,32054.93422,1.91425,385.578,34.811,45.064,45.000,0.00,0.11,-272.67,-272.73,-0,564,-6,23.7,21.4,0.4,23.5,21.9,0.5,5.73,1.95,3.2,26.9
2014-08-22 00:18:00,0.0,1.89920,0.00066,381.734,0.116,0.7924,0.0022,140.001,45.000,32056.09779,1.91438,385.464,34.813,45.064,45.000,0.00,0.11,-272.67,-272.73,-0,564,-6,23.7,21.3,0.3,23.5,21.8,0.4,5.73,1.98,3.2,27.0
2014-08-22 00:19:00,0.0,1.89865,0.00041,381.639,0.111,0.7954,0.0022,139.998,45.000,32054.51036,1.91389,385.387,34.813,45.064,45.000,0.00,0.11,-272.66,-272.72,-0,564,-6,23.7,21.3,0.3,23.5,21.8,0.4,5.73,1.99,3.2,26.9
2014-08-22 00:20:00,0.0,1.89986,0.00050,381.480,0.204,0.7984,0.0043,140.000,45.000,32054.89335,1.91511,385.231,34.811,45.064,45.000,0.00,0.11,-272.66,-272.73,-1,564,-6,23.7,21.5,0.4,23.5,21.8,0.4,5.73,1.95,3.2,26.9
2014-08-22 00:21:00,0.0,1.89964,0.00032,381.625,0.052,0.8032,0.0026,140.000,45.000,32054.69419,1.91506,385.409,34.813,45.064,45.000,0.00,0.11,-272.67,-272.73,-1,564,-6,23.7,21.5,0.5,23.5,22.0,0.5,5.73,1.90,3.2,26.8
2014-08-22 00:22:00,0.0,1.89939,0.00049,381.644,0.112,0.7980,0.0023,140.001,45.000,32054.76402,1.91469,385.396,34.814,45.064,45.000,0.00,0.11,-272.66,-272.73,-1,564,-6,23.8,21.4,0.4,23.5,22.0,0.5,5.73,1.85,3.2,26.8
2014-08-22 00:23:00,0.0,1.89977,0.00034,381.951,0.076,0.7946,0.0033,140.000,45.000,32054.27077,1.91498,385.690,34.813,45.064,45.000,0.00,0.11,-272.66,-272.73,-1,564,-6,23.7,21.3,0.3,23.5,21.9,0.5,5.73,1.83,3.2,26.8
2014-08-22 00:24:00,0.0,1.89955,0.00048,382.107,0.080,0.7910,0.0025,139.999,45.000,32056.03282,1.91475,385.832,34.807,45.064,45.000,0.00,0.11,-272.67,-272.73,-1,564,-6,23.8,21.2,0.3,23.5,21.7,0.4,5.73,1.83,3.2,26.9
2014-08-22 00:25:00,0.0,1.89940,0.00031,382.140,0.056,0.7926,0.0029,139.999,45.000,32055.76964,1.91458,385.878,34.813,45.064,45.000,0.00,0.11,-272.66,-272.72,-1,564,-6,23.7,21.3,0.3,23.5,21.8,0.4,5.73,1.87,3.2,26.7
2014-08-22 00:26:00,0.0,1.90008,0.00073,381.635,0.225,0.7911,0.0028,140.000,45.000,32056.08894,1.91520,385.367,34.812,45.064,45.000,0.00,0.11,-272.66,-272.72,-1,564,-6,23.7,21.3,0.3,23.5,21.7,0.3,5.73,1.93,3.2,26.7
2014-08-22 00:27:00,0.0,1.89998,0.00053,381.790,0.113,0.8035,0.0033,140.000,45.000,32056.59356,1.91545,385.571,34.816,45.064,45.000,0.00,0.11,-272.67,-272.73,-1,564,-6,23.7,21.6,0.5,23.5,22.0,0.5,5.73,1.97,3.2,26.7
2014-08-22 00:28:00,0.0,1.90004,0.00041,381.670,0.041,0.7965,0.0048,140.000,45.000,32057.04666,1.91531,385.424,34.813,45.064,45.000,0.00,0.11,-272.66,-272.73,-1,564,-6,23.7,21.3,0.3,23.5,21.9,0.5,5.73,1.99,3.2,26.7
2014-08-22 00:29:00,0.0,1.90069,0.00086,381.368,0.189,0.7914,0.0028,139.999,45.000,32059.30441,1.91587,385.092,34.824,45.064,45.000,0.00,0.11,-272.66,-272.72,-1,564,-6,23.7,21.3,0.3,23.5,21.8,0.4,5.73,1.97,3.2,26.7
2014-08-22 00:30:00,0.0,1.89916,0.00070,381.478,0.058,0.7966,0.0031,140.001,45.000,32058.39010,1.91450,385.226,34.821,45.064,45.000,0.00,0.11,-272.66,-272.73,-1,564,-6,23.7,21.4,0.3,23.5,21.9,0.4,5.73,1.92,3.2,26.8
2014-08-22 00:31:00,0.0,1.90063,0.00081,381.273,0.123,0.7917,0.0018,140.001,45.000,32058.05669,1.91573,384.998,34.824,45.064,45.000,0.00,0.11,-272.66,-272.73,-0,564,-6,23.7,21.3,0.3,23.5,21.8,0.4,5.73,1.86,3.2,27.0
2014-08-22 00:32:00,0.0,1.90111,0.00105,381.199,0.083,0.7962,0.0025,139.999,45.000,32057.35897,1.91633,384.943,34.816,45.064,45.000,0.00,0.11,-272.66,-272.73,-0,564,-6,23.7,21.4,0.3,23.5,21.8,0.4,5.73,1.83,3.2,26.9
2014-08-22 00:33:00,0.0,1.90099,0.00066,381.174,0.155,0.7995,0.0026,140.000,45.000,32056.84301,1.91635,384.932,34.814,45.064,45.000,0.00,0.11,-272.66,-272.72,-0,564,-6,23.7,21.5,0.4,23.5,21.9,0.5,5.73,1.83,3.2,26.8
2014-08-22 00:34:00,0.0,1.90194,0.00060,381.138,0.113,0.8029,0.0013,140.002,45.000,32059.42773,1.91733,384.917,34.815,45.064,45.000,0.00,0.11,-272.67,-272.73,-0,564,-6,23.7,21.6,0.4,23.5,22.0,0.6,5.73,1.87,3.2,26.7
2014-08-22 00:35:00,0.0,1.90047,0.00099,381.239,0.316,0.8083,0.0036,139.998,45.000,32057.03274,1.91606,385.030,34.814,45.064,45.000,0.00,0.11,-272.67,-272.73,-0,564,-6,23.7,21.7,0.5,23.5,22.1,0.6,5.73,1.93,3.2,26.8
2014-08-22 00:36:00,0.0,1.89947,0.00040,381.513,0.048,0.8060,0.0049,140.002,45.000,32057.78421,1.91491,385.309,34.811,45.064,45.000,0.00,0.11,-272.66,-272.72,-0,564,-6,23.7,21.6,0.5,23.5,22.2,0.7,5.73,1.97,3.2,26.8
2014-08-22 00:37:00,0.0,1.90013,0.00067,381.443,0.117,0.7988,0.0020,139.998,45.000,32056.77598,1.91542,385.204,34.812,45.064,45.000,0.00,0.11,-272.67,-272.73,-0,564,-6,23.7,21.4,0.4,23.5,22.0,0.5,5.73,1.99,3.2,26.8
2014-08-22 00:38:00,0.0,1.90089,0.00066,381.093,0.181,0.8014,0.0029,140.000,45.000,32057.79768,1.91621,384.866,34.813,45.064,45.000,0.00,0.11,-272.67,-272.73,-0,564,-6,23.7,21.5,0.4,23.5,22.0,0.5,5.73,1.97,3.2,26.7
2014-08-22 00:39:00,0.0,1.90007,0.00060,381.265,0.132,0.8061,0.0021,139.999,45.000,32055.94818,1.91562,385.048,34.813,45.064,45.000,0.00,0.11,-272.67,-272.73,-0,564,-5,23.8,21.6,0.5,23.5,22.1,0.6,5.73,1.92,3.2,26.6
2014-08-22 00:40:00,0.0,1.90022,0.00042,381.398,0.060,0.8037,0.0035,139.998,45.000,32055.55494,1.91561,385.182,34.813,45.064,45.000,0.00,0.11,-272.66,-272.72,-1,564,-6,23.8,21.5,0.5,23.5,22.1,0.6,5.73,1.86,3.2,26.8
2014-08-22 00:41:00,0.0,1.90038,0.00051,381.213,0.164,0.8009,0.0022,139.998,45.000,32056.51147,1.91577,384.987,34.813,45.064,45.000,0.00,0.11,-272.67,-272.73,-1,564,-6,23.7,21.5,0.4,23.5,22.0,0.5,5.73,1.83,3.2,26.9
2014-08-22 00:42:00,0.0,1.89946,0.00051,381.306,0.134,0.8050,0.0021,140.001,45.000,32057.15727,1.91490,385.082,34.814,45.064,45.000,0.00,0.11,-272.66,-272.73,-1,564,-6,23.7,21.6,0.5,23.5,22.1,0.6,5.73,1.83,3.2,26.9
2014-08-22 00:43:00,0.0,1.89919,0.00046,381.223,0.059,0.8013,0.0023,139.999,45.000,32056.33218,1.91454,384.994,34.813,45.064,45.000,0.00,0.11,-272.66,-272.72,-1,564,-6,23.8,21.5,0.4,23.5,22.1,0.6,5.73,1.88,3.2,26.9
2014-08-22 00:44:00,0.0,1.89937,0.00053,381.167,0.077,0.8034,0.0021,140.003,45.000,32057.23482,1.91480,384.945,34.813,45.064,45.000,0.00,0.11,-272.67,-272.73,-1,564,-6,23.7,21.5,0.4,23.5,22.0,0.5,5.73,1.93,3.2,27.0
2014-08-22 00:45:00,0.0,1.89901,0.00043,381.278,0.164,0.8050,0.0020,139.998,45.000,32053.38539,1.91443,385.062,34.812,45.064,45.000,0.00,0.11,-272.67,-272.73,-1,564,-6,23.7,21.6,0.5,23.5,22.1,0.6,5.73,1.98,3.2,26.9
2014-08-22 00:46:00,0.0,1.89901,0.00044,381.364,0.081,0.8007,0.0021,140.001,45.000,32057.65844,1.91436,385.136,34.809,45.064,45.000,0.00,0.11,-272.66,-272.72,-1,564,-6,23.7,21.5,0.4,23.5,22.0,0.6,5.73,1.99,3.2,26.8
2014-08-22 00:47:00,0.0,1.89901,0.00052,381.261,0.091,0.7986,0.0024,140.000,45.000,32057.99203,1.91433,385.014,34.809,45.064,45.000,0.00,0.11,-272.66,-272.73,-1,564,-6,23.7,21.4,0.4,23.5,21.9,0.5,5.73,1.96,3.2,26.8
2014-08-22 00:48:00,0.0,1.89890,0.00056,380.980,0.098,0.8010,0.0030,140.000,45.000,32058.19529,1.91421,384.749,34.807,45.064,45.000,0.00,0.11,-272.66,-272.73,-1,564,-6,23.7,21.5,0.4,23.5,22.0,0.5,5.73,1.90,3.2,26.9
2014-08-22 00:49:00,0.0,1.89955,0.00055,380.846,0.122,0.8098,0.0029,139.998,45.000,32055.21271,1.91506,384.646,34.812,45.064,45.000,0.00,0.11,-272.66,-272.73,-1,564,-6,23.7,21.8,0.6,23.5,22.1,0.6,5.73,1.85,3.2,26.8
2014-08-22 00:50:00,0.0,1.90033,0.00046,381.153,0.071,0.8145,0.0022,139.998,45.000,32055.94982,1.91596,384.987,34.812,45.064,45.000,0.00,0.11,-272.66,-272.72,-0,564,-6,23.7,21.8,0.6,23.5,22.3,0.7,5.73,1.82,3.2,26.7
2014-08-22 00:51:00,0.0,1.89992,0.00033,380.946,0.118,0.8095,0.0021,139.999,45.000,32056.62747,1.91548,384.754,34.808,45.064,45.000,0.00,0.11,-272.67,-272.73,-0,564,-6,23.7,21.8,0.6,23.5,22.3,0.7,5.73,1.84,3.2,26.8
2014-08-22 00:52:00,0.0,1.89984,0.00051,381.030,0.161,0.8148,0.0024,139.999,45.000,32055.45823,1.91544,384.854,34.806,45.064,45.000,0.00,0.11,-272.67,-272.73,-0,564,-6,23.7,21.9,0.7,23.5,22.3,0.7,5.73,1.89,3.2,26.8
2014-08-22 00:53:00,0.0,1.89926,0.00033,380.947,0.177,0.8113,0.0031,140.000,45.000,32055.95932,1.91484,384.763,34.813,45.064,45.000,0.00,0.11,-272.66,-272.72,-0,564,-6,23.7,21.7,0.6,23.5,22.3,0.7,5.73,1.95,3.2,26.8
2014-08-22 00:54:00,0.0,1.89872,0.00042,381.008,0.120,0.8106,0.0034,140.000,45.000,32057.91044,1.91433,384.821,34.813,45.064,45.000,0.00,0.11,-272.67,-272.73,-0,564,-6,23.7,21.7,0.6,23.5,22.2,0.7,5.73,1.99,3.2,26.6
2014-08-22 00:55:00,0.0,1.89819,0.00033,381.137,0.136,0.8086,0.0024,139.997,45.000,32054.71190,1.91366,384.936,34.814,45.064,45.000,0.00,0.11,-272.67,-272.73,-0,564,-6,23.7,21.7,0.5,23.5,22.2,0.7,5.73,1.99,3.2,26.7
2014-08-22 00:56:00,0.0,1.89831,0.00038,381.020,0.172,0.8011,0.0024,139.999,45.000,32055.66582,1.91367,384.793,34.820,45.064,45.000,0.00,0.11,-272.66,-272.72,-0,564,-6,23.7,21.5,0.4,23.5,22.1,0.6,5.73,1.94,3.2,26.8
2014-08-22 00:57:00,0.0,1.89828,0.00031,381.215,0.168,0.8011,0.0027,139.997,45.000,32054.19233,1.91360,384.972,34.826,45.064,45.000,0.00,0.11,-272.66,-272.72,-1,564,-6,23.7,21.5,0.4,23.5,22.0,0.5,5.73,1.87,3.2,26.8
2014-08-22 00:58:00,0.0,1.89863,0.00032,381.413,0.039,0.7928,0.0020,140.000,45.000,32053.94673,1.91380,385.142,34.841,45.064,45.000,0.00,0.11,-272.67,-272.73,-1,564,-6,23.7,21.2,0.2,23.5,21.8,0.4,5.73,1.83,3.2,26.8
2014-08-22 00:59:00,0.0,1.89936,0.00050,381.313,0.090,0.7865,0.0021,139.998,45.000,32053.19086,1.91442,385.015,34.822,45.064,45.000,0.00,0.11,-272.66,-272.73,-1,564,-6,23.7,21.1,0.1,23.5,21.6,0.3,5.73,1.82,3.2,26.8
2014-08-22 01:00:00,0.0,1.89993,0.00060,381.334,0.034,0.7867,0.0019,140.002,45.000,32054.33131,1.91500,385.030,34.813,45.064,45.000,0.00,0.11,-272.66,-272.72,-1,564,-6,23.7,21.1,0.2,23.5,21.6,0.3,5.73,1.86,3.2,26.7
2014-08-22 01:01:00,0.0,1.89837,0.00039,381.200,0.106,0.7888,0.0019,140.002,45.000,32054.72386,1.91351,384.908,34.827,45.064,45.000,0.00,0.11,-272.67,-272.73,-1,564,-6,23.7,21.1,0.2,23.5,21.7,0.3,5.73,1.92,3.2,26.6
2014-08-22 01:02:00,0.0,1.89831,0.00046,381.106,0.147,0.7875,0.0026,139.998,45.000,32055.08637,1.91336,384.808,34.840,45.064,45.000,0.00,0.11,-272.67,-272.72,-1,564,-6,23.7,21.1,0.2,23.5,21.7,0.3,5.73,1.99,3.2,26.7
2014-08-22 01:03:00,0.0,1.89899,0.00059,381.297,0.047,0.7885,0.0016,140.001,45.000,32055.41860,1.91411,385.004,34.853,45.064,45.000,0.00,0.11,-272.66,-272.72,-1,564,-6,23.7,21.1,0.2,23.5,21.6,0.3,5.73,2.00,3.2,26.7
2014-08-22 01:04:00,0.0,1.89880,0.00044,381.258,0.053,0.7868,0.0019,140.001,45.000,32055.14084,1.91385,384.955,34.864,45.064,45.000,0.00,0.11,-272.67,-272.72,-1,564,-6,23.7,21.1,0.1,23.5,21.6,0.3,5.73,1.95,3.2,26.6
2014-08-22 01:05:00,0.0,1.89884,0.00040,381.153,0.138,0.7861,0.0021,140.001,45.000,32056.44446,1.91391,384.855,34.872,45.064,45.000,0.00,0.11,-272.67,-272.73,-1,564,-6,23.7,21.1,0.1,23.5,21.6,0.3,5.73,1.89,3.2,26.6
2014-08-22 01:06:00,0.0,1.89874,0.00037,381.037,0.116,0.7900,0.0034,139.997,45.000,32052.76749,1.91385,384.742,34.856,45.064,45.000,0.00,0.11,-272.66,-272.73,-0,564,-6,23.7,21.2,0.2,23.5,21.6,0.3,5.73,1.84,3.2,26.7
2014-08-22 01:07:00,0.0,1.89862,0.00038,381.128,0.035,0.7936,0.0028,139.999,45.000,32053.62027,1.91384,384.860,34.849,45.064,45.000,0.00,0.11,-272.66,-272.73,-0,564,-6,23.7,21.3,0.3,23.5,21.8,0.4,5.73,1.82,3.2,26.7
2014-08-22 01:08:00,0.0,1.89868,0.00035,381.145,0.056,0.7901,0.0017,139.997,45.000,32053.65872,1.91382,384.859,34.842,45.064,45.000,0.00,0.11,-272.66,-272.73,-0,564,-6,23.7,21.2,0.2,23.5,21.7,0.4,5.73,1.84,3.2,26.6
2014-08-22 01:09:00,0.0,1.89856,0.00033,381.041,0.048,0.7908,0.0021,139.999,45.000,32056.33121,1.91370,384.759,34.839,45.064,45.000,0.00,0.11,-272.66,-272.72,-0,564,-6,23.7,21.2,0.3,23.5,21.7,0.4,5.73,1.91,3.2,26.7
2014-08-22 01:10:00,0.0,1.89910,0.00075,381.043,0.085,0.7935,0.0018,140.002,45.000,32057.23051,1.91427,384.768,34.822,45.064,45.000,0.00,0.11,-272.66,-272.72,-0,564,-6,23.8,21.3,0.3,23.5,21.8,0.4,5.73,1.97,3.2,26.6
2014-08-22 01:11:00,0.0,1.89966,0.00040,381.190,0.073,0.7904,0.0019,140.000,45.000,32057.22399,1.91482,384.903,34.815,45.064,45.000,0.00,0.11,-272.67,-272.73,-0,564,-6,23.8,21.2,0.2,23.5,21.7,0.4,5.73,2.00,3.2,26.8
2014-08-22 01:12:00,0.0,1.90051,0.00068,380.948,0.236,0.7848,0.0019,139.999,45.000,32054.94423,1.91551,384.645,34.813,45.065,45.000,0.00,0.11,-272.67,-272.73,-0,564,-6,23.8,21.1,0.2,23.5,21.6,0.3,5.73,1.98,3.2,26.8
2014-08-22 01:13:00,0.0,1.90002,0.00058,381.147,0.196,0.7900,0.0034,140.000,45.000,32056.49330,1.91521,384.852,34.814,45.064,45.000,0.00,0.11,-272.66,-272.72,-1,564,-6,23.8,21.2,0.2,23.5,21.7,0.3,5.73,1.92,3.2,26.7
2014-08-22 01:14:00,0.0,1.90042,0.00040,381.105,0.054,0.7863,0.0024,140.002,45.000,32056.67808,1.91546,384.800,34.818,45.064,45.000,0.00,0.11,-272.66,-272.73,-1,564,-6,23.7,21.1,0.2,23.5,21.7,0.3,5.73,1.85,3.2,26.6
2014-08-22 01:15:00,0.0,1.90008,0.00073,381.159,0.154,0.7863,0.0019,140.000,45.000,32054.04439,1.91517,384.848,34.818,45.064,45.000,0.00,0.11,-272.67,-272.73,-1,564,-6,23.8,21.1,0.2,23.5,21.6,0.3,5.73,1.82,3.2,26.5
2014-08-22 01:16:00,0.0,1.90001,0.00053,381.359,0.087,0.7866,0.0028,140.001,45.000,32055.57587,1.91512,385.056,34.834,45.064,45.000,0.00,0.11,-272.66,-272.73,-1,564,-6,23.8,21.1,0.2,23.5,21.6,0.3,5.73,1.83,3.2,26.6
2014-08-22 01:17:00,0.0,1.89993,0.00051,381.420,0.036,0.7821,0.0021,139.998,45.000,32053.84119,1.91489,385.099,34.852,45.064,45.000,0.00,0.11,-272.66,-272.72,-1,564,-6,23.8,21.0,0.1,23.5,21.5,0.2,5.73,1.90,3.2,26.6
2014-08-22 01:18:00,0.0,1.90010,0.00040,381.313,0.122,0.7834,0.0020,139.997,45.000,32054.81289,1.91512,384.994,34.849,45.064,45.000,0.00,0.11,-272.67,-272.73,-1,564,-6,23.8,21.0,0.1,23.5,21.5,0.2,5.73,1.96,3.2,26.8
2014-08-22 01:19:00,0.0,1.90050,0.00044,381.035,0.169,0.7876,0.0028,139.998,45.000,32054.57454,1.91557,384.745,34.846,45.064,45.000,0.00,0.11,-272.66,-272.73,-1,564,-6,23.7,21.2,0.2,23.5,21.6,0.3,5.73,1.99,3.2,26.9
2014-08-22 01:20:00,0.0,1.90023,0.00058,381.139,0.171,0.7962,0.0032,139.996,45.000,32053.55009,1.91554,384.870,34.853,45.064,45.000,0.00,0.11,-272.66,-272.72,-1,564,-6,23.7,21.4,0.4,23.5,21.8,0.4,5.73,1.98,3.2,26.8
2014-08-22 01:21:00,0.0,1.89891,0.00036,381.508,0.026,0.7968,0.0033,139.998,45.000,32053.79893,1.91418,385.256,34.850,45.064,45.000,0.00,0.11,-272.66,-272.73,-1,564,-6,23.7,21.4,0.3,23.5,21.9,0.5,5.73,1.93,3.2,27.0
2014-08-22 01:22:00,0.0,1.89899,0.00048,381.507,0.027,0.7890,0.0023,139.997,45.000,32055.35483,1.91409,385.219,34.827,45.064,45.000,0.00,0.11,-272.66,-272.73,-1,564,-6,23.7,21.2,0.2,23.5,21.7,0.4,5.73,1.86,3.2,27.0
2014-08-22 01:23:00,0.0,1.89965,0.00048,381.466,0.053,0.7866,0.0019,140.000,45.000,32055.81571,1.91473,385.168,34.837,45.064,45.000,0.00,0.11,-272.66,-272.72,-0,564,-6,23.7,21.1,0.2,23.5,21.6,0.3,5.73,1.82,3.2,26.9
2014-08-22 01:24:00,0.0,1.89999,0.00051,381.363,0.043,0.7893,0.0018,139.998,45.000,32055.60352,1.91510,385.075,34.846,45.064,45.000,0.00,0.11,-272.66,-272.73,-0,564,-6,23.7,21.2,0.2,23.5,21.6,0.3,5.73,1.82,3.2,26.8
2014-08-22 01:25:00,0.0,1.89992,0.00044,381.216,0.062,0.7918,0.0021,139.998,45.000,32056.30034,1.91512,384.940,34.873,45.064,45.000,0.00,0.11,-272.67,-272.73,-0,564,-6,23.8,21.3,0.3,23.5,21.7,0.4,5.73,1.88,3.2,26.9
2014-08-22 01:26:00,0.0,1.89978,0.00028,381.107,0.076,0.7979,0.0032,140.000,45.000,32057.57949,1.91507,384.858,34.875,45.064,45.000,0.00,0.11,-272.66,-272.73,-0,564,-6,23.7,21.4,0.4,23.5,21.8,0.4,5.73,1.95,3.2,26.8
2014-08-22 01:27:00,0.0,1.89977,0.00037,380.809,0.149,0.8019,0.0028,140.000,45.000,32058.01803,1.91514,384.579,34.875,45.064,45.000,0.00,0.11,-272.66,-272.73,-0,564,-6,23.7,21.6,0.5,23.5,22.0,0.5,5.73,1.99,3.2,26.8
2014-08-22 01:28:00,0.0,1.90000,0.00042,381.128,0.083,0.8113,0.0032,140.000,45.000,32057.91244,1.91555,384.939,34.877,45.064,45.000,0.00,0.11,-272.67,-272.73,-1,564,-6,23.7,21.8,0.6,23.5,22.2,0.7,5.73,1.99,3.2,26.6
2014-08-22 01:29:00,0.0,1.89976,0.00032,381.032,0.042,0.8092,0.0017,139.999,45.000,32056.89256,1.91528,384.837,34.887,45.064,45.000,0.00,0.11,-272.67,-272.72,-1,564,-6,23.7,21.7,0.6,23.5,22.3,0.7,5.73,1.94,3.2,26.6
2014-08-22 01:30:00,0.0,1.89973,0.00030,381.013,0.065,0.8104,0.0020,139.998,45.000,32055.58756,1.91527,384.823,34.892,45.064,45.000,0.00,0.11,-272.66,-272.73,-1,564,-6,23.8,21.8,0.6,23.5,22.2,0.7,5.73,1.86,3.2,26.6
2014-08-22 01:31:00,0.0,1.89953,0.00040,380.956,0.104,0.8108,0.0017,140.000,45.000,32055.88577,1.91510,384.767,34.896,45.064,45.000,0.00,0.11,-272.67,-272.73,-1,564,-6,23.8,21.8,0.6,23.5,22.3,0.7,5.73,1.82,3.2,26.6
2014-08-22 01:32:00,0.0,1.89976,0.00029,381.030,0.108,0.8100,0.0022,139.998,45.000,32055.84342,1.91528,384.839,34.919,45.064,45.000,0.00,0.11,-272.67,-272.73,-1,564,-6,23.8,21.7,0.6,23.5,22.2,0.7,5.73,1.82,3.2,26.6
2014-08-22 01:33:00,0.0,1.90008,0.00046,381.146,0.057,0.8070,0.0013,139.999,45.000,32054.50220,1.91555,384.939,34.905,45.064,45.000,0.00,0.11,-272.66,-272.72,-1,564,-6,23.7,21.6,0.5,23.5,22.2,0.6,5.73,1.88,3.2,26.6
2014-08-22 01:34:00,0.0,1.89994,0.00046,381.053,0.093,0.8050,0.0021,139.999,45.000,32054.01348,1.91537,384.839,34.880,45.064,45.000,0.00,0.11,-272.67,-272.72,-1,564,-6,23.7,21.6,0.5,23.5,22.1,0.6,5.73,1.95,3.2,26.7
2014-08-22 01:35:00,0.0,1.89997,0.00043,381.239,0.048,0.8094,0.0020,139.999,45.000,32055.19019,1.91556,385.046,34.876,45.064,45.000,0.00,0.11,-272.67,-272.73,-1,564,-6,23.7,21.7,0.6,23.5,22.2,0.7,5.73,1.99,3.2,26.7
2014-08-22 01:36:00,0.0,1.90009,0.00036,381.134,0.044,0.8022,0.0024,140.000,45.000,32056.55405,1.91542,384.908,34.886,45.064,45.000,0.00,0.11,-272.66,-272.73,-1,564,-6,23.8,21.5,0.5,23.5,22.1,0.6,5.73,1.99,3.2,26.8
2014-08-22 01:37:00,0.0,1.90004,0.00032,381.041,0.128,0.8040,0.0022,139.999,45.000,32056.37848,1.91547,384.817,34.888,45.064,45.000,0.00,0.11,-272.66,-272.73,-1,564,-6,23.8,21.6,0.5,23.5,22.0,0.6,5.73,1.93,3.2,26.6
2014-08-22 01:38:00,0.0,1.90028,0.00033,381.183,0.029,0.8062,0.0019,139.999,45.000,32055.62230,1.91575,384.974,34.881,45.064,45.000,0.00,0.11,-272.66,-272.73,-0,564,-6,23.8,21.6,0.5,23.5,22.1,0.6,5.73,1.86,3.2,26.5
2014-08-22 01:39:00,0.0,1.90045,0.00032,381.144,0.049,0.8037,0.0020,140.001,45.000,32055.13251,1.91585,384.925,34.877,45.064,45.000,0.00,0.11,-272.66,-272.73,-0,564,-6,23.8,21.6,0.5,23.5,22.1,0.6,5.73,1.81,3.2,26.5
2014-08-22 01:40:00,0.0,1.90059,0.00051,381.073,0.036,0.8043,0.0016,139.998,45.000,32056.90856,1.91599,384.852,34.878,45.064,45.000,0.00,0.11,-272.66,-272.72,-0,564,-6,23.8,21.6,0.5,23.5,22.1,0.6,5.73,1.83,3.2,26.8
2014-08-22 01:41:00,0.0,1.90179,0.00063,381.094,0.038,0.8055,0.0010,140.001,45.000,32056.23900,1.91718,384.883,34.889,45.064,45.000,0.00,0.11,-272.66,-272.73,-0,564,-6,23.8,21.6,0.5,23.5,22.1,0.6,5.73,1.89,3.2,26.7
2014-08-22 01:42:00,0.0,1.90264,0.00080,380.991,0.046,0.8044,0.0024,139.999,45.000,32055.94481,1.91811,384.774,34.903,45.064,45.000,0.00,0.11,-272.67,-272.73,-0,564,-6,23.8,21.6,0.5,23.5,22.1,0.6,5.73,1.96,3.2,26.7
2014-08-22 01:43:00,0.0,1.90208,0.00071,380.975,0.039,0.8074,0.0035,139.999,45.000,32054.04756,1.91764,384.768,34.921,45.064,45.000,0.00,0.11,-272.67,-272.73,-1,564,-6,23.7,21.7,0.5,23.5,22.1,0.6,5.73,1.99,3.2,26.7
2014-08-22 01:44:00,0.0,1.90247,0.00100,380.705,0.192,0.8099,0.0014,140.001,45.000,32056.31717,1.91800,384.516,34.935,45.064,45.000,0.00,0.11,-272.66,-272.73,-1,564,-6,23.8,21.7,0.6,23.5,22.2,0.7,5.73,1.98,3.2,26.9
2014-08-22 01:45:00,0.0,1.90104,0.00035,380.968,0.200,0.8156,0.0031,139.997,45.000,32056.65528,1.91671,384.793,34.933,45.064,45.000,0.00,0.11,-272.66,-272.73,-1,564,-6,23.7,21.9,0.7,23.5,22.3,0.7,5.73,1.93,3.2,26.9
2014-08-22 01:46:00,0.0,1.90119,0.00034,381.019,0.096,0.8131,0.0034,139.997,45.000,32056.02493,1.91680,384.843,34.937,45.064,45.000,0.00,0.11,-272.66,-272.73,-1,564,-6,23.8,21.8,0.6,23.5,22.4,0.8,5.73,1.85,3.2,26.9
2014-08-22 01:47:00,0.0,1.90157,0.00050,381.134,0.059,0.8107,0.0026,140.000,45.000,32056.93984,1.91711,384.944,34.934,45.064,45.000,0.00,0.11,-272.66,-272.72,-1,564,-6,23.8,21.8,0.6,23.5,22.3,0.7,5.73,1.82,3.2,26.9
2014-08-22 01:48:00,0.0,1.90160,0.00046,381.075,0.070,0.8088,0.0020,140.002,45.000,32059.94660,1.91712,384.878,34.933,45.064,45.000,0.00,0.11,-272.66,-272.73,-1,564,-6,23.8,21.7,0.6,23.5,22.2,0.7,5.73,1.84,3.2,26.9